TimeCST,TemperatureF,Dew PointF,Humidity,Sea Level PressureIn,VisibilityMPH,Wind Direction,Wind SpeedMPH,Gust SpeedMPH,PrecipitationIn,Events,Conditions,WindDirDegrees,DateUTC
12:13 AM,23.0,19.4,86,29.94,10.0,Calm,Calm,-,N/A,,Mostly Cloudy,0,2013-01-08 06:13:00
12:34 AM,19.4,15.8,86,29.93,10.0,Calm,Calm,-,N/A,,Clear,0,2013-01-08 06:34:00
12:54 AM,19.4,15.8,86,29.93,10.0,SW,4.6,-,N/A,,Clear,230,2013-01-08 06:54:00
1:13 AM,19.4,15.8,86,29.93,10.0,SSW,4.6,-,N/A,,Clear,200,2013-01-08 07:13:00
1:34 AM,19.4,15.8,86,29.92,10.0,South,3.5,-,N/A,,Clear,190,2013-01-08 07:34:00
1:54 AM,15.8,12.2,86,29.92,10.0,Calm,Calm,-,N/A,,Clear,0,2013-01-08 07:54:00
2:13 AM,15.8,10.4,79,29.92,10.0,Calm,Calm,-,N/A,,Clear,0,2013-01-08 08:13:00
2:34 AM,14.0,12.2,93,29.91,10.0,Calm,Calm,-,N/A,,Clear,0,2013-01-08 08:34:00
2:54 AM,15.8,12.2,86,29.91,10.0,South,4.6,-,N/A,,Clear,170,2013-01-08 08:54:00
3:13 AM,15.8,12.2,86,29.91,10.0,SSE,8.1,-,N/A,,Clear,160,2013-01-08 09:13:00
3:34 AM,14.0,10.4,86,29.90,10.0,SSE,4.6,-,N/A,,Clear,150,2013-01-08 09:34:00
3:53 AM,14.0,12.2,93,29.89,10.0,SSE,6.9,-,N/A,,Clear,160,2013-01-08 09:53:00
4:14 AM,15.8,12.2,86,29.88,10.0,South,5.8,-,N/A,,Clear,170,2013-01-08 10:14:00
4:34 AM,15.8,12.2,86,29.88,10.0,South,5.8,-,N/A,,Clear,170,2013-01-08 10:34:00
4:53 AM,15.8,12.2,86,29.87,10.0,South,6.9,-,N/A,,Clear,170,2013-01-08 10:53:00
5:14 AM,17.6,14.0,86,29.87,10.0,South,5.8,-,N/A,,Clear,180,2013-01-08 11:14:00
5:34 AM,19.4,15.8,86,29.85,10.0,SSE,4.6,-,N/A,,Clear,160,2013-01-08 11:34:00
5:54 AM,19.4,15.8,86,29.85,10.0,Calm,Calm,-,N/A,,Clear,0,2013-01-08 11:54:00
6:14 AM,19.4,15.8,86,29.85,10.0,SE,3.5,-,N/A,,Clear,140,2013-01-08 12:14:00
6:34 AM,21.2,15.8,80,29.85,10.0,SSE,6.9,-,N/A,,Clear,150,2013-01-08 12:34:00
6:53 AM,21.2,17.6,86,29.84,10.0,SE,6.9,-,N/A,,Clear,130,2013-01-08 12:53:00
7:14 AM,23.0,17.6,80,29.84,10.0,SE,9.2,-,N/A,,Clear,140,2013-01-08 13:14:00
7:34 AM,21.2,17.6,86,29.83,10.0,ESE,8.1,-,N/A,,Clear,120,2013-01-08 13:34:00
7:53 AM,21.2,15.8,80,29.84,10.0,SE,6.9,-,N/A,,Clear,130,2013-01-08 13:53:00
8:14 AM,21.2,17.6,86,29.83,10.0,ESE,9.2,-,N/A,,Clear,120,2013-01-08 14:14:00
8:34 AM,23.0,17.6,80,29.82,10.0,ESE,10.4,-,N/A,,Clear,120,2013-01-08 14:34:00
8:53 AM,23.0,17.6,80,29.82,10.0,SE,6.9,-,N/A,,Clear,140,2013-01-08 14:53:00
9:14 AM,23.0,17.6,80,29.82,10.0,SE,6.9,-,N/A,,Clear,140,2013-01-08 15:14:00
9:34 AM,23.0,17.6,80,29.83,10.0,SE,6.9,-,N/A,,Scattered Clouds,140,2013-01-08 15:34:00
9:53 AM,24.8,17.6,74,29.81,10.0,SE,9.2,-,N/A,,Clear,130,2013-01-08 15:53:00
10:14 AM,24.8,19.4,80,29.81,10.0,SE,10.4,-,N/A,,Clear,140,2013-01-08 16:14:00
10:34 AM,24.8,19.4,80,29.80,10.0,ESE,9.2,-,N/A,,Clear,120,2013-01-08 16:34:00
10:53 AM,26.6,19.4,74,29.76,10.0,ESE,12.7,-,N/A,,Clear,110,2013-01-08 16:53:00
11:14 AM,24.8,19.4,80,29.72,10.0,ESE,18.4,-,N/A,,Clear,110,2013-01-08 17:14:00
11:54 AM,26.6,21.2,80,29.73,10.0,SSE,13.8,-,N/A,,Clear,160,2013-01-08 17:54:00
12:14 PM,26.6,23.0,86,29.73,10.0,South,10.4,-,N/A,,Clear,170,2013-01-08 18:14:00
12:33 PM,28.4,24.8,86,29.72,10.0,South,5.8,-,N/A,,Scattered Clouds,170,2013-01-08 18:33:00
12:54 PM,28.4,24.8,86,29.69,10.0,SE,10.4,-,N/A,,Clear,130,2013-01-08 18:54:00
1:14 PM,28.4,24.8,86,29.70,10.0,SE,6.9,-,N/A,,Scattered Clouds,140,2013-01-08 19:14:00
1:54 PM,28.4,24.8,86,29.69,10.0,SSE,8.1,-,N/A,,Clear,160,2013-01-08 19:54:00
2:14 PM,28.4,24.8,86,29.69,10.0,South,5.8,-,N/A,,Clear,170,2013-01-08 20:14:00
2:33 PM,28.4,24.8,86,29.69,10.0,South,4.6,-,N/A,,Clear,170,2013-01-08 20:33:00
2:54 PM,28.4,24.8,86,29.69,10.0,South,4.6,-,N/A,,Clear,170,2013-01-08 20:54:00
3:14 PM,28.4,24.8,86,29.69,10.0,South,5.8,-,N/A,,Clear,180,2013-01-08 21:14:00
3:33 PM,30.2,24.8,80,29.71,10.0,WSW,6.9,-,N/A,,Clear,250,2013-01-08 21:33:00
3:54 PM,32.0,24.8,75,29.72,10.0,West,8.1,-,N/A,,Clear,260,2013-01-08 21:54:00
4:14 PM,30.2,24.8,80,29.73,10.0,WSW,3.5,-,N/A,,Clear,250,2013-01-08 22:14:00
4:33 PM,32.0,24.8,75,29.72,10.0,West,11.5,-,N/A,,Clear,270,2013-01-08 22:33:00
4:54 PM,28.4,23.0,80,29.74,10.0,WNW,8.1,-,N/A,,Clear,290,2013-01-08 22:54:00
5:14 PM,28.4,23.0,80,29.74,10.0,West,10.4,-,N/A,,Clear,270,2013-01-08 23:14:00
5:33 PM,28.4,23.0,80,29.76,10.0,WNW,6.9,-,N/A,,Clear,300,2013-01-08 23:33:00
5:54 PM,28.4,23.0,80,29.77,10.0,WNW,10.4,-,N/A,,Clear,290,2013-01-08 23:54:00
6:14 PM,28.4,23.0,80,29.78,10.0,WNW,9.2,-,N/A,,Clear,290,2013-01-09 00:14:00
6:33 PM,28.4,23.0,80,29.79,10.0,West,9.2,-,N/A,,Clear,280,2013-01-09 00:33:00
6:54 PM,30.2,24.8,80,29.80,10.0,West,11.5,-,N/A,,Clear,280,2013-01-09 00:54:00
7:14 PM,30.2,24.8,80,29.81,10.0,West,10.4,-,N/A,,Clear,270,2013-01-09 01:14:00
7:33 PM,30.2,24.8,80,29.82,10.0,West,11.5,-,N/A,,Clear,270,2013-01-09 01:33:00
7:54 PM,28.4,24.8,86,29.83,10.0,West,10.4,-,N/A,,Clear,260,2013-01-09 01:54:00
8:14 PM,30.2,24.8,80,29.84,10.0,West,11.5,-,N/A,,Clear,260,2013-01-09 02:14:00
8:33 PM,33.8,26.6,75,29.84,10.0,West,17.3,-,N/A,,Clear,260,2013-01-09 02:33:00
8:54 PM,33.8,26.6,75,29.85,10.0,WSW,12.7,-,N/A,,Clear,250,2013-01-09 02:54:00
9:14 PM,33.8,26.6,75,29.86,10.0,WSW,13.8,-,N/A,,Clear,250,2013-01-09 03:14:00
9:34 PM,33.8,26.6,75,29.87,10.0,West,11.5,-,N/A,,Scattered Clouds,260,2013-01-09 03:34:00
9:54 PM,33.8,26.6,75,29.88,10.0,West,12.7,-,N/A,,Mostly Cloudy,280,2013-01-09 03:54:00
10:14 PM,37.4,28.4,70,29.90,10.0,WNW,18.4,-,N/A,,Mostly Cloudy,290,2013-01-09 04:14:00
10:33 PM,35.6,28.4,75,29.90,10.0,WNW,10.4,-,N/A,,Mostly Cloudy,290,2013-01-09 04:33:00
11:54 PM,35.6,26.6,70,29.93,10.0,West,15.0,-,N/A,,Overcast,270,2013-01-09 05:54:00